Tracking 28790 objects as of 19-Apr-2024
HD Live streaming from Space Station
objects crossing your sky now

ICEYE-X11

Track ICEYE-X11 now!
10-day predictions


NORAD ID: 48918
Int'l Code: 2021-059AR
Perigee: 498.6 km
Apogee: 517.0 km
Inclination: 97.6 °
Period: 94.6 minutes
Semi major axis: 6878 km
RCS: Unknown
Launch date: June 30, 2021
Source: (FIN)
Launch site: AIR FORCE EASTERN TEST RANGE (AFETR)
Your satellite tracking list
Your tracking list is empty




NASA's NSSDC Master Catalog

Two Line Element Set (TLE):
1 48918U 21059AR  24110.01421729  .00014978  00000-0  66207-3 0  9994
2 48918  97.6207 253.8746 0013370 299.7538  60.2367 15.21728749155961
Source of the keplerian elements: AFSPC